AMC-6

Last updated on Fri Apr 25 2025 00:02:38 GMT+0000 (Coordinated Universal Time)

1 26580U 00067A 25113.64739887 .00000091 00000+0 00000+0 0 9996 2 26580 0.0938 77.5740 0002919 308.7766 283.5950 1.00269113 89687
UTC large
Height (km)
Speed (km/s)
/
Latitude / Longitude
Inclination (degrees)
Orbital Period (minutes)
Azimuth
Elevation
Range (km)
Doppler Factor

Next 0 passes for location: London (51.5072 / 0.1276)

Sorry there are no passes over London.